DW8873 Weather Reports


Display with metric or nautical units.
time (UTC)temp
F
wind
direction
speed
MPH
gust
MPH
rain 1hr
in
rain 24hr
in
rain mn
in
humidity
%
barometer
mb
20260831030335 70 99 3.0 8.0 0.00 0.00 0.00 53 1028.1
20260831025333 69 95 3.0 7.0 0.00 0.00 0.00 49 1028.5
20260831024332 68 108 3.0 7.0 0.00 0.00 0.00 47 1028.5
20260831023331 69 97 3.0 9.0 0.00 0.00 0.00 48 1028.8
20260831022330 69 97 2.0 6.0 0.00 0.00 0.00 48 1028.8
20260831021328 69 98 3.0 7.0 0.00 0.00 0.00 50 1029.2
20260831020327 70 113 2.0 6.0 0.00 0.00 0.00 54 1029.2
20260831015254 70 110 2.0 4.0 0.00 0.00 0.00 56 1029.5
20260831014253 71 103 2.0 4.0 0.00 0.00 0.00 56 1029.5
20260831013251 72 133 1.0 3.0 0.00 0.00 0.00 55 1029.9
20260831012250 70 134 1.0 3.0 0.00 0.00 0.00 56 1029.8
20260831011249 68 139 1.0 3.0 0.00 0.00 0.00 56 1030.2
20260831010248 69 145 1.0 3.0 0.00 0.00 0.00 56 1030.2
20260831005246 70 138 2.0 2.0 0.00 0.00 0.00 56 1030.2
20260831004244 69 145 1.0 3.0 0.00 0.00 0.00 56 1030.5
20260831003212 68 131 2.0 3.0 0.00 0.00 0.00 55 1030.5
20260831002210 67 185 1.0 3.0 0.00 0.00 0.00 53 1030.5
20260831001209 68 84 1.0 3.0 0.00 0.00 0.00 54 1030.5
20260831000207 69 75 1.0 2.0 0.00 0.00 0.00 55 1030.5
20260830235206 68 74 1.0 2.0 0.00 0.00 0.00 54 1030.5
20260830234205 67 74 0.0 2.0 0.00 0.00 0.00 50 1030.5
20260830233203 66 74 1.0 2.0 0.00 0.00 0.00 47 1030.5
20260830232202 65 74 2.0 2.0 0.00 0.00 0.00 43 1030.5
20260830231129 64 74 1.0 2.0 0.00 0.00 0.00 34 1030.5
20260830230128 62 74 1.0 2.0 0.00 0.00 0.00 6 1030.5
20260830225055 61 74 1.0 2.0 0.00 0.00 0.00 1 1030.5
20260830224053 61 74 1.0 2.0 0.00 0.00 0.00 1 1030.8
20260830223052 60 74 1.0 2.0 0.00 0.00 0.00 1 1030.8
20260830222050 58 74 1.0 2.0 0.00 0.00 0.00 1 1030.5
20260830221048 57 74 1.0 2.0 0.00 0.00 0.00 1 1030.5
20260830220046 56 74 1.0 1.0 0.00 0.00 0.00 1 1030.5
20260830214943 54 74 1.0 1.0 0.00 0.00 0.00 1 1030.4
20260830213910 53 74 0.0 1.0 0.00 0.00 0.00 1 1030.1
20260830212908 51 74 1.0 1.0 0.00 0.00 0.00 1 1030.1
20260830211906 51 74 0.0 1.0 0.00 0.00 0.00 1 1030.1
20260830210905 50 74 0.0 1.0 0.00 0.00 0.00 1 1030.1
20260830205905 49 74 0.0 1.0 0.00 0.00 0.00 1 1030.1
20260830204902 49 74 1.0 1.0 0.00 0.00 0.00 1 1030.1
20260830203901 48 74 0.0 1.0 0.00 0.00 0.00 1 1029.8
20260830202758 48 74 1.0 2.0 0.00 0.00 0.00 1 1029.8
20260830201757 49 74 1.0 2.0 0.00 0.00 0.00 1 1029.8
20260830200755 49 74 1.0 1.0 0.00 0.00 0.00 1 1029.8
20260830195754 49 74 0.0 2.0 0.00 0.00 0.00 1 1029.4
20260830194752 49 74 1.0 2.0 0.00 0.00 0.00 1 1029.4
20260830193750 50 74 0.0 0.0 0.00 0.00 0.00 1 1029.4
20260830192749 50 74 0.0 0.0 0.00 0.00 0.00 1 1029.4
20260830191748 50 74 0.0 0.0 0.00 0.00 0.00 1 1029.1
20260830190747 50 74 0.0 0.0 0.00 0.00 0.00 1 1029.1
20260830185746 50 74 0.0 1.0 0.00 0.00 0.00 1 1029.1
20260830184744 49 74 0.0 1.0 0.00 0.00 0.00 1 1029.1
20260830183742 49 74 0.0 1.0 0.00 0.00 0.00 1 1029.1
20260830182741 49 74 0.0 1.0 0.00 0.00 0.00 1 1028.8
20260830181739 50 74 0.0 1.0 0.00 0.00 0.00 1 1029.1
20260830180738 49 74 1.0 1.0 0.00 0.00 0.00 1 1029.1
20260830175736 50 74 0.0 1.0 0.00 0.00 0.00 1 1029.1
20260830174735 50 74 0.0 3.0 0.00 0.00 0.01 1 1029.1
20260830173734 50 74 2.0 3.0 0.00 0.00 0.00 1 1029.1
20260830172701 50 74 0.0 2.0 0.00 0.00 0.00 1 1029.5
20260830171700 50 74 0.0 2.0 0.00 0.00 0.00 1 1029.5
20260830170628 50 74 1.0 1.0 0.00 0.00 0.00 1 1029.1
20260830165626 50 74 0.0 0.0 0.00 0.00 0.00 1 1029.5
20260830164625 50 74 0.0 0.0 0.00 0.00 0.00 1 1029.5
20260830163623 51 74 0.0 0.0 0.00 0.00 0.00 1 1029.5
20260830162550 51 74 0.0 0.0 0.00 0.00 0.00 1 1029.5
20260830161549 51 74 0.0 0.0 0.00 0.00 0.00 1 1029.5
20260830160548 51 74 0.0 1.0 0.00 0.00 0.00 1 1029.8
20260830155546 51 74 0.0 1.0 0.00 0.00 0.00 1 1029.8
20260830154545 51 74 0.0 1.0 0.00 0.00 0.00 1 1029.8
20260830153543 51 74 0.0 1.0 0.00 0.00 0.00 1 1029.8
20260830152542 52 74 0.0 1.0 0.00 0.00 0.00 1 1029.8
20260830151541 52 74 1.0 2.0 0.00 0.00 0.00 1 1029.8
20260830150539 52 74 1.0 2.0 0.00 0.00 0.00 1 1029.8
20260830145435 52 74 1.0 1.0 0.00 0.00 0.00 1 1029.8
20260830144434 52 74 0.0 1.0 0.00 0.00 0.00 1 1030.2
20260830143432 52 77 0.0 0.0 0.00 0.00 0.00 1 1030.2
20260830142431 53 77 0.0 0.0 0.00 0.00 0.00 1 1030.2
20260830141429 53 77 0.0 0.0 0.00 0.00 0.00 1 1030.2
20260830140428 53 77 0.0 2.0 0.00 0.00 0.00 1 1029.8
20260830135427 53 77 0.0 2.0 0.00 0.00 0.00 1 1029.8
20260830134425 54 77 1.0 2.0 0.00 0.00 0.00 1 1030.1
20260830133423 54 77 1.0 2.0 0.00 0.00 0.00 1 1029.8
20260830132422 55 77 1.0 1.0 0.00 0.00 0.00 1 1029.8
20260830131350 55 77 0.0 1.0 0.00 0.00 0.00 1 1030.2
20260830130348 55 77 0.0 0.0 0.00 0.00 0.00 1 1030.2
20260830125347 55 77 0.0 1.0 0.00 0.00 0.00 1 1030.2
20260830124243 55 77 0.0 3.0 0.00 0.00 0.00 1 1030.2
20260830123242 54 77 1.0 3.0 0.00 0.00 0.00 1 1030.1
20260830122240 54 8 0.0 1.0 0.00 0.00 0.00 1 1029.8
20260830121239 54 8 1.0 1.0 0.00 0.00 0.00 1 1029.8
20260830120206 54 8 1.0 1.0 0.00 0.00 0.00 1 1029.8
20260830115205 55 8 1.0 1.0 0.00 0.00 0.00 1 1029.8
20260830114204 55 8 0.0 1.0 0.00 0.00 0.00 1 1029.8
20260830113131 55 8 1.0 1.0 0.00 0.00 0.00 1 1029.8
20260830112129 56 8 0.0 0.0 0.00 0.00 0.00 1 1029.5
20260830111128 56 8 0.0 0.0 0.00 0.00 0.00 1 1029.5
20260830110126 56 8 0.0 0.0 0.00 0.00 0.00 1 1029.8
20260830105125 56 8 0.0 0.0 0.00 0.00 0.00 1 1029.5
20260830104124 56 8 0.0 0.0 0.00 0.00 0.00 1 1029.4
20260830103051 57 8 0.0 0.0 0.00 0.00 0.00 1 1029.1
20260830102049 57 8 0.0 0.0 0.00 0.00 0.00 1 1029.1
20260830101048 58 8 0.0 0.0 0.00 0.00 0.00 1 1029.1
20260830100047 59 8 0.0 0.0 0.00 0.00 0.00 1 1029.1
20260830094943 59 8 0.0 1.0 0.00 0.00 0.00 1 1029.1
20260830093942 60 8 0.0 2.0 0.00 0.00 0.00 1 1028.8
20260830092940 60 8 1.0 2.0 0.00 0.00 0.00 7 1028.8
20260830091938 61 8 0.0 2.0 0.00 0.00 0.00 19 1028.8
20260830090937 61 8 1.0 2.0 0.00 0.00 0.00 27 1028.8
20260830085936 62 8 1.0 2.0 0.00 0.00 0.00 29 1028.8
20260830084903 62 13 1.0 3.0 0.00 0.00 0.00 32 1028.8
20260830083901 63 13 0.0 3.0 0.00 0.00 0.00 35 1028.4
20260830082900 63 330 1.0 4.0 0.00 0.00 0.00 38 1028.4
20260830081858 63 83 2.0 4.0 0.00 0.00 0.00 43 1028.1
20260830080856 64 83 0.0 7.0 0.00 0.00 0.00 47 1028.1
20260830075854 64 67 2.0 8.0 0.00 0.00 0.00 49 1028.1
20260830074853 65 76 4.0 8.0 0.00 0.00 0.00 51 1028.1
20260830073852 65 82 3.0 7.0 0.00 0.00 0.00 55 1027.8
20260830072850 66 41 2.0 6.0 0.00 0.00 0.00 56 1027.8
20260830071747 66 80 2.0 6.0 0.00 0.00 0.00 56 1027.8
20260830070643 66 24 3.0 6.0 0.00 0.00 0.00 56 1027.8
20260830065641 66 65 2.0 6.0 0.00 0.00 0.00 56 1027.8
20260830064640 66 75 2.0 4.0 0.00 0.00 0.00 58 1027.8
20260830063638 67 114 2.0 4.0 0.00 0.00 0.00 59 1027.8
20260830062432 67 110 2.0 5.0 0.00 0.00 0.00 59 1027.8
20260830061430 67 106 1.0 6.0 0.00 0.00 0.00 58 1027.8
20260830060429 67 112 2.0 5.0 0.00 0.00 0.00 57 1027.8
20260830055428 67 113 2.0 5.0 0.00 0.00 0.00 57 1027.8
20260830054426 68 109 3.0 5.0 0.00 0.00 0.00 57 1027.8
20260830053425 68 104 2.0 6.0 0.00 0.00 0.00 57 1027.8
20260830052219 68 98 2.0 5.0 0.00 0.00 0.00 56 1027.8
20260830051146 69 112 1.0 5.0 0.00 0.00 0.00 56 1027.8
20260830050145 68 108 2.0 4.0 0.00 0.00 0.00 57 1027.8
20260830045143 69 109 2.0 4.0 0.00 0.00 0.00 57 1028.1
20260830044142 69 108 2.0 6.0 0.00 0.00 0.00 57 1028.1
20260830043140 69 101 3.0 6.0 0.00 0.00 0.00 55 1028.1
20260830042005 69 107 3.0 5.0 0.00 0.00 0.00 52 1027.8
20260830041003 68 104 2.0 6.0 0.00 0.00 0.00 54 1027.8
20260830040002 69 103 2.0 6.0 0.00 0.00 0.00 57 1028.1
20260830035000 69 115 2.0 5.0 0.00 0.00 0.00 55 1028.1
20260830033928 69 110 2.0 6.0 0.00 0.00 0.00 53 1028.1
20260830032926 69 75 1.0 6.0 0.00 0.00 0.00 55 1028.1
20260830031924 70 102 2.0 5.0 0.00 0.00 0.00 57 1028.1